Watsonville, CA

9:21 PM PST on December 09, 2019 (GMT -0800)
Watsonville Municipal

Weather History for KWVI - August, 2019

Change the Weather History Date:

Friday, August 30, 2019

  Actual Average Record
Temperature  
Mean Temperature 69 °F 64 °F  
Max Temperature 81 °F 76 °F 87 °F (2007)
Min Temperature 57 °F 53 °F 49 °F (2010)
Degree Days  
Heating Degree Days 0    
Month to date heating degree days 11  
Since 1 June heating degree days 149  
Since 1 July heating degree days 58  
Cooling Degree Days 4    
Month to date cooling degree days 57  
Year to date cooling degree days 111  
Since 1 June cooling degree days 111  
Growing Degree Days 19 (Base 50)    
Moisture  
Dew Point 56 °F    
Average Humidity 68    
Maximum Humidity 90    
Minimum Humidity 45    
Precipitation  
Precipitation 0.00 in - 0.15 in (1953)
Month to date precipitation 0.02  
Year to date precipitation 22.78  
Sea Level Pressure  
Sea Level Pressure 30.00 in    
Wind  
Wind Speed 5 mph (South)    
Max Wind Speed 10 mph    
Max Gust Speed 15 mph    
Visibility 10 miles    
Events      
T = Trace of Precipitation, MM = Missing Value Source: NWS Daily Summary

Daily Weather History Graph

Daily Weather History Graph

Search for Another Location

Airport or City:

Astronomy

Aug. 30, 2019 Rise Set
Actual Time 6:36 AM PDT 7:38 PM PDT
Civil Twilight 6:09 AM PDT 8:05 PM PDT
Nautical Twilight 5:37 AM PDT 8:36 PM PDT
Astronomical Twilight 5:05 AM PDT 9:09 PM PDT
Moon 6:44 AM PDT (8/30) 8:18 PM PDT (8/30)
Length of Visible Light 13h 55m
Length of Day
13h 02m
New Moon, 0% of the Moon is Illuminated
Aug 30
New Moon
Sep 5
First Quarter
Sep 13
Full
Sep 21
Last Quarter
Sep 28
New

Hourly Weather History & Observations

Time (PDT) Temp. Heat Index Dew Point Humidity Pressure Visibility Wind Dir Wind Speed Gust Speed Precip Events Conditions
12:53 AM 60.1 °F - 55.9 °F 86% 30.02 in 10.0 mi Calm Calm - N/A   Clear
1:53 AM 59.0 °F - 55.0 °F 87% 30.02 in 10.0 mi NNW 4.6 mph - N/A   Clear
2:53 AM 59.0 °F - 55.9 °F 90% 30.02 in 10.0 mi NNW 3.5 mph - N/A   Clear
3:53 AM 57.9 °F - 54.0 °F 87% 30.02 in 10.0 mi Calm Calm - N/A   Clear
4:53 AM 57.0 °F - 54.0 °F 89% 30.03 in 10.0 mi North 5.8 mph - N/A   Clear
5:53 AM 57.0 °F - 53.1 °F 87% 30.02 in 10.0 mi NNW 3.5 mph - N/A   Clear
6:53 AM 57.0 °F - 54.0 °F 89% 30.04 in 10.0 mi NNW 4.6 mph - N/A   Clear
7:53 AM 60.1 °F - 55.0 °F 83% 30.05 in 10.0 mi Calm Calm - N/A   Clear
8:53 AM 66.0 °F - 57.0 °F 73% 30.04 in 10.0 mi Calm Calm - N/A   Clear
9:53 AM 72.0 °F - 55.9 °F 57% 30.04 in 10.0 mi Calm Calm - N/A   Clear
10:53 AM 75.0 °F - 57.0 °F 53% 30.04 in 10.0 mi Variable 4.6 mph - N/A   Clear
11:53 AM 78.1 °F - 57.9 °F 50% 30.02 in 10.0 mi SW 8.1 mph - N/A   Clear
12:53 PM 77.0 °F - 57.9 °F 52% 30.01 in 10.0 mi SSW 9.2 mph - N/A   Clear
1:53 PM 81.0 °F 81.3 °F 59.0 °F 47% 29.99 in 10.0 mi SSW 8.1 mph - N/A   Clear
2:53 PM 80.1 °F 80.6 °F 57.9 °F 47% 29.97 in 10.0 mi South 8.1 mph - N/A   Clear
3:53 PM 81.0 °F 81.0 °F 57.0 °F 44% 29.96 in 10.0 mi South 8.1 mph - N/A   Clear
4:53 PM 78.1 °F - 59.0 °F 52% 29.95 in 10.0 mi South 8.1 mph - N/A   Clear
5:53 PM 72.0 °F - 59.0 °F 64% 29.94 in 10.0 mi SE 8.1 mph - N/A   Clear
6:53 PM 66.0 °F - 57.9 °F 75% 29.96 in 10.0 mi SSE 9.2 mph - N/A   Clear
7:53 PM 62.1 °F - 57.9 °F 86% 29.96 in 10.0 mi SSE 6.9 mph - N/A   Clear
8:53 PM 61.0 °F - 57.0 °F 87% 29.97 in 10.0 mi SE 6.9 mph - N/A   Clear
9:36 PM 61.0 °F - 57.0 °F 87% 29.98 in 10.0 mi SE 4.6 mph - N/A   Scattered Clouds
9:53 PM 61.0 °F - 57.0 °F 87% 29.98 in 10.0 mi SE 4.6 mph - N/A   Mostly Cloudy
10:38 PM 60.1 °F - 55.9 °F 86% 29.98 in 10.0 mi SE 4.6 mph - N/A   Partly Cloudy
10:53 PM 60.1 °F - 55.9 °F 86% 29.98 in 10.0 mi Calm Calm - N/A   Clear
11:53 PM 60.1 °F - 55.9 °F 86% 29.98 in 10.0 mi Calm Calm - N/A   Clear